This is the latest recevied weather packets stored in our database for station/object KC5DAQ-25. If no packets are shown the sender has not sent any weather packets the latest 10 day(s).
| Time | Temp. | Humidity | Pressure | Rain* | Wind** | Luminosity | Snow |
|---|---|---|---|---|---|---|---|
| 1777583162 | 21.67° C | 83% | 1001 hPa | 0 mm | - | 276 W/m² | - |
| 1777583104 | 21.67° C | 83% | 1001 hPa | 0 mm | - | 276 W/m² | - |
| 1777583044 | 21.67° C | 83% | 1001.2 hPa | 0 mm | - | 259 W/m² | - |
| 1777582984 | 21.67° C | 83% | 1001.3 hPa | 0 mm | - | 259 W/m² | - |
| 1777582923 | 21.67° C | 83% | 1001.5 hPa | 0 mm | - | 259 W/m² | - |
| 1777582862 | 21.67° C | 83% | 1001.5 hPa | 0 mm | - | 258 W/m² | - |
| 1777582803 | 21.67° C | 83% | 1001.7 hPa | 0 mm | - | 266 W/m² | - |
| 1777582742 | 21.67° C | 83% | 1001.6 hPa | 0 mm | - | 274 W/m² | - |
| 1777582682 | 21.67° C | 83% | 1001.7 hPa | 0 mm | - | 285 W/m² | - |
| 1777582623 | 21.67° C | 83% | 1001.8 hPa | 0 mm | - | 285 W/m² | - |
| 1777582563 | 21.67° C | 83% | 1001.8 hPa | 0 mm | - | 239 W/m² | - |
| 1777582550 | 21.67° C | 83% | 1001.9 hPa | 0 mm | - | 227 W/m² | - |
| 1777582533 | 21.67° C | 83% | 1001.8 hPa | 0 mm | - | 239 W/m² | - |
| 1777582521 | 21.67° C | 83% | 1001.9 hPa | 0 mm | - | 239 W/m² | - |
| 1777582324 | 21.67° C | 83% | 1002.2 hPa | 0 mm | - | 204 W/m² | - |
| 1777582263 | 21.67° C | 83% | 1002.1 hPa | 0 mm | - | 192 W/m² | - |
| 1777582205 | 21.67° C | 83% | 1002.2 hPa | 0 mm | - | 150 W/m² | - |
| 1777582143 | 21.67° C | 83% | 1002.3 hPa | 0 mm | - | 150 W/m² | - |
| 1777582083 | 21.67° C | 83% | 1002.4 hPa | 0 mm | - | 150 W/m² | - |
| 1777582024 | 21.67° C | 83% | 1002.4 hPa | 0 mm | - | 137 W/m² | - |
| 1777581963 | 21.67° C | 83% | 1002.5 hPa | 0 mm | - | 113 W/m² | - |
| 1777581905 | 21.67° C | 83% | 1002.5 hPa | 0 mm | - | 113 W/m² | - |
| 1777581842 | 21.67° C | 83% | 1002.5 hPa | 0 mm | - | 113 W/m² | - |
| 1777581783 | 21.67° C | 83% | 1002.5 hPa | 0 mm | - | 107 W/m² | - |
| 1777581724 | 21.67° C | 83% | 1002.5 hPa | 0 mm | - | 104 W/m² | - |
* Rain latest hour (hover to see other rain measurements)
** Current wind speed in m/s (hover to see current wind gust speed)